This demonstration page uses our WeatherBlox Daily Observations layout. Learn more.

Left ArrowRight Arrow

47.50024, -111.30081

Hourly Observations for January 31, 2016

Temp ( °F °C ) Dew Point ( °F °C ) Humidity (%) Winds ( mph kmh ) Pressure ( in mb ) Visibility ( mi km ) Precip ( " mm )
12:53 am 00:53 Clear 25 -3.9 17 -8.3 72 72 SW 14 22 29.83 1010 10 16 0.00 0.00
1:53 am 01:53 Clear 24 -4.4 17 -8.3 75 75 SW 15 24 29.84 1010 10 16 0.00 0.00
2:53 am 02:53 Clear 23 -5 16 -8.9 74 74 WSW 14 22 29.85 1011 10 16 0.00 0.00
3:53 am 03:53 Clear 22 -5.6 15 -9.4 75 75 SW 14 22 29.87 1012 10 16 0.00 0.00
4:53 am 04:53 Clear 22 -5.6 14 -10 71 71 SW 12 19 29.89 1012 10 16 0.00 0.00
5:53 am 05:53 Mostly Cloudy 26 -3.3 17 -8.3 69 69 SW 12 19 29.89 1012 10 16 0.00 0.00
6:53 am 06:53 Partly Cloudy 26 -3.3 16 -8.9 66 66 SW 12 19 29.90 1013 10 16 0.00 0.00
7:53 am 07:53 Cloudy 27 -2.8 16 -8.9 63 63 SW 10 17 29.91 1013 10 16 0.00 0.00
8:53 am 08:53 Cloudy 28 -2.2 16 -8.9 60 60 SW 12 19 29.92 1013 10 16 0.00 0.00
9:53 am 09:53 Cloudy 30 -1.1 17 -8.3 58 58 WSW 16 26 29.91 1013 10 16 0.00 0.00
10:53 am 10:53 Cloudy 33 0.6 15 -9.4 47 47 SW 15 24 29.92 1013 10 16 0.00 0.00
11:53 am 11:53 Mostly Cloudy 36 2.2 14 -10 40 40 WSW 17 28 29.91 1013 10 16 0.00 0.00
12:53 pm 12:53 Partly Cloudy 37 2.8 13 -10.6 37 37 W 15 24 29.89 1012 10 16 0.00 0.00
1:53 pm 13:53 Cloudy with Light Snow 33 0.6 15 -9.4 47 47 NW 13 20 29.91 1013 5 8 0.00 0.03
1:57 pm 13:57 Cloudy with Light Snow 31 -0.6 18 -7.8 59 59 NW 13 20 29.88 1012 2 3 0.00 0.03
2:07 pm 14:07 Cloudy with Light Snow 30 -1.1 20 -6.7 66 66 WSW 6 9 29.91 1013 2 3 0.00 0.03
2:14 pm 14:14 Cloudy with Light Snow 30 -1 21 -6 69 69 SSW 5 7 29.88 1012 1 2 0.00 0.00
2:23 pm 14:23 Cloudy with Light Snow 31 -0.6 22 -5.6 69 69 SSE 5 7 29.88 1012 5 8 0.00 0.03
2:53 pm 14:53 Cloudy 32 0 19 -7.2 59 59 S 7 11 29.91 1013 10 16 0.00 0.03
3:53 pm 15:53 Cloudy 33 0.6 17 -8.3 52 52 N 9 15 29.93 1014 10 16 0.00 0.00
4:53 pm 16:53 Cloudy 31 -0.6 19 -7.2 61 61 N 9 15 29.96 1014 10 16 0.00 0.00
5:53 pm 17:53 Cloudy 28 -2.2 20 -6.7 72 72 NNE 3 6 29.97 1015 10 16 0.00 0.00
6:53 pm 18:53 Cloudy 27 -2.8 21 -6.1 78 78 E 3 6 29.98 1015 10 16 0.00 0.00
7:53 pm 19:53 Cloudy 26 -3.3 21 -6.1 81 81 S 3 6 30.00 1016 10 16 0.00 0.00
8:53 pm 20:53 Cloudy 28 -2.2 22 -5.6 78 78 S 5 7 30.00 1016 8 13 0.00 0.03
9:53 pm 21:53 Cloudy 26 -3.3 22 -5.6 84 84 SSW 3 6 30.00 1016 10 16 0.00 0.00
10:53 pm 22:53 Mostly Clear 25 -3.9 21 -6.1 85 85 Calm 30.01 1016 10 16 0.00 0.00
11:53 pm 23:53 Clear 20 -6.7 18 -7.8 92 92 SW 5 7 30.02 1017 10 16 0.00 0.00

Powered by AerisWeather